Location: PACMO
(41.3967°N, 90.3760°W)
Time: 18:19:50
(UTC-05:00)

Amateur Radio Satellites - All Passes

Search period start: 24 May 2015 17:49
Search period end: 25 May 2015 17:49
Location: PACMO, 41.3967°N, 90.3760°W

Satellite Date Start Highest point End Downlink Frequencies (MHz)
Time Altitude Azimuth
CUBESAT XI-V 24 May 18:03:53 18:04:39 10° 86° (E) 18:05:44 437.345
MOZHAYETS 4 24 May 18:07:01 18:11:30 56° 286° (WNW) 18:15:58
CUTE-I 24 May 18:09:11 18:14:21 57° 72° (ENE) 18:19:35 437.470
BEESAT 2 24 May 18:18:00 18:20:52 19° 112° (ESE) 18:23:52 435.950
RS-15 24 May 18:19:13 18:30:45 67° 51° (NE) 18:42:48 29.354- 29.394
Cubesat XI-IV 24 May 18:28:47 18:34:06 86° 76° (ENE) 18:39:28 437.490
HO-68 24 May 18:51:46 18:55:10 15° 53° (NE) 18:58:55 435.675
PRISM 24 May 18:59:00 19:01:37 17° 92° (E) 19:04:22 437.425
YUBILEINY 24 May 19:00:03 19:08:39 61° 77° (ENE) 19:17:14 435.215
Cosmos 2491 24 May 19:03:32 19:10:52 32° 85° (E) 19:18:28 435.465 / 435.565
BEESAT 3 24 May 19:09:22 19:13:26 85° 122° (ESE) 19:17:34 437.485
AIST 2 24 May 19:27:46 19:31:28 30° 115° (ESE) 19:35:16 435.215
DOVE 4 24 May 19:32:00 19:34:39 15° 62° (ENE) 19:37:34 437.250
CANX-2 24 May 19:33:44 19:35:11 12° 64° (ENE) 19:36:52 2200.000
CUTE 1.7 + AOD 2 24 May 19:37:43 19:39:10 12° 64° (ENE) 19:40:49 437.475
BRITE-PL 24 May 19:37:51 19:42:23 36° 69° (ENE) 19:47:18 437.365/2234.400
CUBESAT XI-V 24 May 19:38:02 19:42:45 78° 285° (WNW) 19:47:26 437.345
AUBIESAT-1 24 May 19:38:36 19:39:34 11° 96° (E) 19:40:43 437.475
CUTE-I 24 May 19:51:13 19:54:53 18° 270° (W) 19:58:22 437.470
STRAND 1 24 May 19:52:18 19:57:22 57° 100° (E) 20:02:26 437.568
GOMX 1 24 May 19:53:58 19:58:28 33° 69° (ENE) 20:03:17 467.674
BEESAT 2 24 May 19:54:47 19:58:42 41° 308° (NW) 20:02:39 435.950
Cosmos 2504 24 May 20:02:11 20:04:49 12° 57° (ENE) 20:07:55 435.465 / 435.565
SEEDS 24 May 20:02:59 20:05:49 18° 67° (ENE) 20:08:46 437.485
Cubesat XI-IV 24 May 20:13:14 20:15:02 11° 274° (W) 20:16:29 437.490
COMPASS 1 24 May 20:20:03 20:23:15 22° 68° (ENE) 20:26:32 437.405
RS-15 24 May 20:32:17 20:42:45 38° 252° (WSW) 20:53:17 29.354- 29.394
PRISM 24 May 20:33:23 20:37:17 40° 288° (WNW) 20:41:10 437.425
AAUSAT CUBESAT 2 24 May 20:34:08 20:37:36 26° 70° (ENE) 20:41:09 437.432
HO-68 24 May 20:34:40 20:41:48 71° 71° (ENE) 20:48:58 435.675
CUBEBUG 2 24 May 20:38:35 20:41:18 16° 65° (ENE) 20:44:13 437.445
BEESAT 3 24 May 20:49:58 20:52:02 13° 321° (NW) 20:53:59 437.485
ZACube-1 24 May 20:52:20 20:54:25 13° 64° (ENE) 20:56:44 437.345
YUBILEINY 24 May 20:57:47 21:04:58 29° 276° (W) 21:11:53 435.215
Cosmos 2491 24 May 20:58:45 21:07:22 56° 284° (WNW) 21:16:01 435.465 / 435.565
M-CUBED/EXP-1 PRIME 24 May 21:00:49 21:04:00 42° 292° (WNW) 21:07:07 437.505
CINEMA 3 24 May 21:03:57 21:08:45 52° 73° (ENE) 21:13:40 145.822/145.860
AIST 2 24 May 21:06:17 21:10:03 29° 312° (NW) 21:13:48 435.215
CANX-2 24 May 21:06:23 21:10:38 67° 259° (W) 21:14:53 2200.000
DOVE 4 24 May 21:06:41 21:11:45 78° 260° (W) 21:17:03 437.250
Oscar 11 24 May 21:08:58 21:12:45 31° 70° (ENE) 21:16:36 145.826/435.025
CUTE 1.7 + AOD 2 24 May 21:10:21 21:14:36 67° 259° (W) 21:18:51 437.475
AUBIESAT-1 24 May 21:11:33 21:14:38 35° 293° (WNW) 21:17:41 437.475
BRITE-PL 24 May 21:16:38 21:20:58 28° 268° (W) 21:25:32 437.365/2234.400
DELFI C3 24 May 21:18:43 21:22:06 27° 70° (ENE) 21:25:33 145.870
AIST 1 24 May 21:23:52 21:28:07 87° 94° (E) 21:32:25
UWE-3 24 May 21:29:33 21:33:53 39° 71° (ENE) 21:38:16 435.000/436.395/437.385
GOMX 1 24 May 21:32:05 21:36:35 31° 267° (W) 21:41:16 467.674
STRAND 1 24 May 21:32:36 21:36:11 19° 296° (WNW) 21:39:36 437.568
SEEDS 24 May 21:37:22 21:41:21 39° 262° (W) 21:45:20 437.485
AISAT 24 May 21:40:29 21:41:29 11° 62° (ENE) 21:42:44 437.250
FUNcube-1 24 May 21:46:30 21:50:51 45° 73° (ENE) 21:55:15 145.935
Cosmos 2504 24 May 21:52:33 21:59:49 76° 81° (E) 22:07:01 435.465 / 435.565
COMPASS 1 24 May 21:55:01 21:58:47 31° 264° (W) 22:02:31 437.405
AAUSAT CUBESAT 2 24 May 22:09:41 22:13:12 25° 266° (W) 22:16:38 437.432
CUBEBUG 2 24 May 22:12:49 22:17:32 61° 260° (W) 22:22:17 437.445
HO-68 24 May 22:24:51 22:30:15 21° 270° (W) 22:35:22 435.675
ZACube-1 24 May 22:25:42 22:30:17 68° 259° (W) 22:34:53 437.345
UKube-1 24 May 22:33:07 22:37:24 70° 75° (ENE) 22:41:44 .
ESTCUBE 1 24 May 22:36:21 22:39:51 24° 68° (ENE) 22:43:28 437.505/2401.250
50 SAT 24 May 22:37:10 22:40:56 41° 73° (ENE) 22:44:44 437.505
DX 1 24 May 22:38:04 22:42:25 85° 78° (ENE) 22:46:49 434.975-435.025
HUMSAT D 24 May 22:40:36 22:44:56 82° 77° (ENE) 22:49:16 437.325/437.525
VELOX 1 24 May 22:42:35 22:46:48 45° 72° (ENE) 22:51:04 145.980
CINEMA 3 24 May 22:42:49 22:46:18 18° 271° (W) 22:49:39 145.822/145.860
Oscar 11 24 May 22:45:27 22:48:58 23° 266° (W) 22:52:25 145.826/435.025
CUSAT 1 24 May 22:47:54 22:51:00 13° 51° (NE) 22:54:16 437.405
CUBEBUG 1 24 May 22:48:43 22:52:20 27° 69° (ENE) 22:56:03 437.445
DELFI C3 24 May 22:53:56 22:57:13 23° 266° (W) 23:00:26 145.870
POLYITAN 1 24 May 22:55:17 22:55:53 10° 87° (E) 22:56:45 437.675
ANTELSAT 24 May 23:02:55 23:06:47 29° 95° (E) 23:10:35 437.575/2403.000
Cosmos 2491 24 May 23:05:08 23:06:54 10° 309° (NW) 23:07:57 435.465 / 435.565
UWE-3 24 May 23:06:55 23:10:34 22° 268° (W) 23:14:07 435.000/436.395/437.385
AISAT 24 May 23:13:02 23:17:28 81° 256° (WSW) 23:21:59 437.250
FUNcube-1 24 May 23:24:13 23:27:26 18° 269° (W) 23:30:30 145.935
NANOSAT C BR1 24 May 23:24:40 23:28:01 23° 93° (E) 23:31:26 145.865
GONETS M04 24 May 23:29:05 23:35:33 23° 62° (ENE) 23:42:18
QB50P2 24 May 23:30:36 23:34:15 27° 95° (E) 23:37:55 145.880/145.840
TIGRISAT 24 May 23:36:35 23:41:00 68° 101° (E) 23:45:17 435.000
SPROUT 24 May 23:37:17 23:40:45 25° 69° (ENE) 23:44:20 437.525
DANDE 24 May 23:40:15 23:46:50 27° 62° (ENE) 23:52:40 436.750
POPSAT HIP 1 24 May 23:43:17 23:47:15 36° 97° (E) 23:51:13 437.405
DUCHIFAT 1 24 May 23:47:14 23:51:16 39° 98° (E) 23:55:16 145.980
Cosmos 2504 24 May 23:47:50 23:52:25 17° 278° (W) 23:56:37 435.465 / 435.565
UNISAT 6 24 May 23:55:56 00:00:22 71° 285° (WNW) 00:04:39 437.425
ISS 24 May 23:56:48 23:59:19 21° 134° (SE) 00:01:54 145.825
TISAT 1 25 May 00:09:39 00:13:36 40° 72° (ENE) 00:17:38 437.305
ESTCUBE 1 25 May 00:12:32 00:16:35 33° 264° (W) 00:20:39 437.505/2401.250
50 SAT 25 May 00:13:27 00:15:53 15° 269° (W) 00:18:11 437.505
UKube-1 25 May 00:13:27 00:14:07 10° 272° (W) 00:14:30 .
PCSat 25 May 00:19:51 00:21:39 12° 104° (ESE) 00:23:49 145.827
VELOX 1 25 May 00:20:43 00:23:38 17° 269° (W) 00:26:24 145.980
BUGSAT 1 25 May 00:21:17 00:25:33 67° 101° (E) 00:29:47 437.445
CUBEBUG 1 25 May 00:24:53 00:28:39 27° 265° (W) 00:32:23 437.445
QB50P1 25 May 00:27:25 00:31:43 70° 284° (WNW) 00:35:58 145.935-145.965
POLYITAN 1 25 May 00:28:04 00:32:21 67° 285° (WNW) 00:36:34 437.675
CUSAT 1 25 May 00:28:08 00:35:43 69° 76° (ENE) 00:41:38 437.405
ANTELSAT 25 May 00:39:50 00:43:29 25° 292° (WNW) 00:46:58 437.575/2403.000
NANOSAT C BR1 25 May 01:00:06 01:03:54 31° 290° (WNW) 01:07:38 145.865
QB50P2 25 May 01:06:28 01:10:05 26° 291° (WNW) 01:13:35 145.880/145.840
SPROUT 25 May 01:12:56 01:16:45 29° 265° (W) 01:20:32 437.525
TIGRISAT 25 May 01:15:23 01:17:13 12° 297° (WNW) 01:18:48 435.000
POPSAT HIP 1 25 May 01:19:43 01:22:55 20° 293° (WNW) 01:25:59 437.405
DANDE 25 May 01:22:54 01:30:55 64° 266° (W) 01:37:17 436.750
DUCHIFAT 1 25 May 01:23:46 01:26:49 19° 293° (WNW) 01:29:44 145.980
GONETS M04 25 May 01:24:45 01:33:34 79° 265° (W) 01:42:16
ITUPSAT 1 25 May 01:28:32 01:33:04 47° 72° (ENE) 01:37:39 437.325
ISS 25 May 01:32:26 01:35:34 44° 330° (NNW) 01:38:43 145.825
BEESAT 25 May 01:37:38 01:42:18 59° 73° (ENE) 01:47:00 436.000
SWISSCUBE 25 May 01:45:40 01:50:24 78° 75° (ENE) 01:55:11 437.505
TISAT 1 25 May 01:46:42 01:49:36 17° 269° (W) 01:52:22 437.305
O/OREOS (USA 219) 25 May 01:51:45 01:56:00 42° 62° (ENE) 02:00:15 437.305
STARS 25 May 01:57:01 01:57:48 11° 62° (ENE) 01:58:50 437.465
BUGSAT 1 25 May 01:58:47 02:00:31 12° 296° (WNW) 02:02:02 437.445
PCSat 25 May 01:58:59 02:04:24 88° 296° (WNW) 02:09:53 145.827
CUSAT 1 25 May 02:12:14 02:17:26 21° 279° (W) 02:21:42 437.405
KKS-1 25 May 02:20:02 02:23:52 29° 69° (ENE) 02:27:46 437.445
Cosmos 2499 25 May 02:28:20 02:35:12 52° 76° (ENE) 02:42:07 435.465 / 435.565
BEESAT 2 25 May 02:36:46 02:39:16 16° 41° (NE) 02:41:51 435.950
Oscar 19 25 May 02:41:23 02:46:35 89° 116° (ESE) 02:51:44 437.125/150
SO-50 25 May 02:49:16 02:51:03 12° 108° (ESE) 02:53:06 436.795
ITAMSAT 1 25 May 02:50:35 02:55:12 32° 96° (E) 02:59:52 435.822/435.867
VERMONT LUNAR 25 May 03:00:24 03:03:04 24° 155° (SSE) 03:05:45 437.305
ITUPSAT 1 25 May 03:07:54 03:11:16 18° 269° (W) 03:14:28 437.325
ISS 25 May 03:10:32 03:12:37 16° 350° (N) 03:14:41 145.825
DANDE 25 May 03:10:44 03:12:22 10° 286° (WNW) 03:13:22 436.750
Gurwin Techsat 1B 25 May 03:14:32 03:19:43 51° 99° (E) 03:24:53 435.225
BEESAT 25 May 03:17:55 03:20:36 14° 271° (W) 03:23:05 436.000
GONETS M04 25 May 03:24:34 03:29:06 15° 283° (WNW) 03:33:01
AO-7 25 May 03:24:49 03:28:17 14° 85° (E) 03:32:26 29.400- 29.500
SWISSCUBE 25 May 03:27:44 03:28:56 11° 273° (W) 03:29:50 437.505
BEESAT 3 25 May 03:28:04 03:32:03 51° 53° (NE) 03:35:59 437.485
STARS 25 May 03:29:12 03:33:39 83° 257° (WSW) 03:38:08 437.465
O/OREOS (USA 219) 25 May 03:32:01 03:35:09 18° 258° (WSW) 03:38:07 437.305
MOZHAYETS 4 25 May 03:34:05 03:36:30 15° 64° (ENE) 03:39:06
PCSat 25 May 03:45:13 03:48:41 16° 320° (NW) 03:52:01 145.827
AIST 2 25 May 03:49:21 03:52:45 23° 45° (NE) 03:56:11 435.215
KKS-1 25 May 03:56:39 04:00:29 27° 265° (W) 04:04:17 437.445
BEESAT 2 25 May 04:13:43 04:17:49 65° 240° (WSW) 04:21:49 435.950
JAS-2 25 May 04:19:48 04:24:30 34° 96° (E) 04:29:19 435.910
Cosmos 2499 25 May 04:22:15 04:27:59 26° 274° (W) 04:33:31 435.465 / 435.565
Oscar 19 25 May 04:23:05 04:25:16 12° 300° (WNW) 04:27:12 437.125/150
SO-50 25 May 04:26:18 04:30:58 78° 304° (NW) 04:35:51 436.795
ITAMSAT 1 25 May 04:30:04 04:34:41 32° 292° (WNW) 04:39:15 435.822/435.867
VERMONT LUNAR 25 May 04:36:49 04:40:01 66° 170° (S) 04:43:11 437.305
PHONESAT 2.4 25 May 04:38:46 04:41:58 35° 159° (SSE) 04:45:11 2401.200-2431.200
HORYU 2 25 May 04:39:14 04:43:38 61° 101° (E) 04:48:00 437.375
ISS 25 May 04:47:57 04:50:00 15° 10° (N) 04:52:04 145.825
Gurwin Techsat 1B 25 May 04:55:21 04:59:22 22° 296° (WNW) 05:03:16 435.225
BEESAT 3 25 May 05:07:19 05:09:40 15° 249° (WSW) 05:11:50 437.485
CUBESAT XI-V 25 May 05:07:44 05:09:04 11° 62° (ENE) 05:10:39 437.345
MOZHAYETS 4 25 May 05:08:46 05:13:18 60° 260° (W) 05:17:49
Cosmos 2491 25 May 05:14:10 05:18:51 16° 56° (ENE) 05:24:04 435.465 / 435.565
AO-7 25 May 05:14:18 05:22:42 75° 106° (ESE) 05:31:04 29.400- 29.500
AIST 2 25 May 05:27:33 05:31:29 38° 244° (WSW) 05:35:19 435.215
STRAND 1 25 May 05:33:44 05:34:50 11° 59° (ENE) 05:36:14 437.568
PRISM 25 May 05:50:18 05:52:10 13° 64° (ENE) 05:54:14 437.425
JAS-2 25 May 06:05:14 06:09:36 27° 293° (WNW) 06:13:54 435.910
SO-50 25 May 06:09:44 06:12:25 14° 325° (NW) 06:15:00 436.795
YUBILEINY 25 May 06:11:06 06:13:46 12° 76° (ENE) 06:17:10 435.215
VERMONT LUNAR 25 May 06:13:58 06:17:09 69° 187° (S) 06:20:20 437.305
M-CUBED/EXP-1 PRIME 25 May 06:15:01 06:18:05 20° 64° (ENE) 06:21:05 437.505
PHONESAT 2.4 25 May 06:16:26 06:19:54 76° 177° (S) 06:23:22 2401.200-2431.200
HORYU 2 25 May 06:17:30 06:19:49 14° 297° (WNW) 06:21:58 437.375
ISS 25 May 06:23:55 06:27:03 42° 29° (NNE) 06:30:12 145.825
AUBIESAT-1 25 May 06:25:05 06:28:18 22° 65° (ENE) 06:31:25 437.475
CUTE-I 25 May 06:26:51 06:30:56 23° 92° (E) 06:35:10 437.470
CUBESAT XI-V 25 May 06:41:20 06:45:55 80° 258° (WSW) 06:50:34 437.345
Cubesat XI-IV 25 May 06:46:17 06:51:06 34° 96° (E) 06:56:00 437.490
AO-7 25 May 07:08:07 07:14:50 27° 304° (NW) 07:21:19 29.400- 29.500
STRAND 1 25 May 07:08:13 07:13:19 82° 75° (ENE) 07:18:27 437.568
Cosmos 2491 25 May 07:08:45 07:17:38 76° 80° (E) 07:26:26 435.465 / 435.565
PRISM 25 May 07:23:14 07:27:14 53° 259° (W) 07:31:15 437.425
AIST 1 25 May 07:31:28 07:34:50 22° 72° (ENE) 07:38:17
BRITE-PL 25 May 07:44:16 07:46:47 13° 85° (E) 07:49:35 437.365/2234.400
M-CUBED/EXP-1 PRIME 25 May 07:48:46 07:52:46 36° 256° (WSW) 07:56:30 437.505
VERMONT LUNAR 25 May 07:51:22 07:54:06 26° 204° (SSW) 07:56:49 437.305
PHONESAT 2.4 25 May 07:54:32 07:57:57 59° 192° (SSW) 08:01:22 2401.200-2431.200
GOMX 1 25 May 07:59:03 07:59:42 10° 83° (E) 08:00:45 467.674
AUBIESAT-1 25 May 07:59:07 08:02:59 32° 258° (WSW) 08:06:32 437.475
YUBILEINY 25 May 08:00:30 08:09:11 70° 94° (E) 08:17:53 435.215
ISS 25 May 08:00:40 08:03:20 23° 225° (SW) 08:05:57 145.825
HO-68 25 May 08:05:56 08:07:49 11° 84° (E) 08:10:18 435.675
CUTE-I 25 May 08:06:10 08:11:17 47° 290° (WNW) 08:16:24 437.470
Cubesat XI-IV 25 May 08:26:27 08:31:10 31° 293° (WNW) 08:35:49 437.490
RS-15 25 May 08:44:02 08:53:34 39° 109° (ESE) 09:03:31 29.354- 29.394
Cosmos 2504 25 May 08:44:24 08:45:36 11° 78° (ENE) 08:47:29 435.465 / 435.565
STRAND 1 25 May 08:51:36 08:53:17 11° 273° (W) 08:54:37 437.568
CANX-2 25 May 08:52:24 08:55:31 20° 92° (E) 08:58:42 2200.000
CUTE 1.7 + AOD 2 25 May 08:56:17 08:59:23 20° 92° (E) 09:02:34 437.475
CINEMA 3 25 May 09:01:22 09:03:10 12° 86° (E) 09:05:12 145.822/145.860
PCSat 25 May 09:05:02 09:07:51 14° 38° (NE) 09:10:50 145.827
DOVE 4 25 May 09:06:34 09:11:07 32° 93° (E) 09:15:31 437.250
Cosmos 2491 25 May 09:07:08 09:13:40 23° 279° (W) 09:19:47 435.465 / 435.565
AIST 1 25 May 09:08:39 09:12:33 31° 269° (W) 09:16:25
BRITE-PL 25 May 09:20:23 09:26:07 83° 285° (WNW) 09:31:36 437.365/2234.400
UNISAT 6 25 May 09:21:19 09:22:50 12° 62° (ENE) 09:24:34 437.425
SEEDS 25 May 09:21:36 09:25:21 31° 96° (E) 09:29:06 437.485
PHONESAT 2.4 25 May 09:33:06 09:35:43 20° 208° (SSW) 09:38:19 2401.200-2431.200
GOMX 1 25 May 09:33:19 09:38:48 87° 102° (ESE) 09:43:59 467.674
COMPASS 1 25 May 09:37:59 09:41:52 38° 97° (E) 09:45:45 437.405
HO-68 25 May 09:49:47 09:56:58 74° 104° (ESE) 10:04:06 435.675
AAUSAT CUBESAT 2 25 May 09:51:46 09:55:46 47° 99° (E) 09:59:46 437.432
YUBILEINY 25 May 09:59:45 10:06:55 26° 295° (WNW) 10:13:47 435.215
ANTELSAT 25 May 10:01:46 10:05:47 29° 69° (ENE) 10:09:50 437.575/2403.000
CUBEBUG 2 25 May 10:04:41 10:08:31 28° 94° (E) 10:12:17 437.445
ZACube-1 25 May 10:15:15 10:18:38 22° 93° (E) 10:22:02 437.345
NANOSAT C BR1 25 May 10:17:49 10:20:43 18° 66° (ENE) 10:23:44 145.865
UKube-1 25 May 10:22:51 10:24:12 11° 89° (E) 10:25:48 .
QB50P2 25 May 10:23:57 10:27:12 22° 68° (ENE) 10:30:35 145.880/145.840
HUMSAT D 25 May 10:26:35 10:28:24 13° 89° (E) 10:30:24 437.325/437.525
CANX-2 25 May 10:27:44 10:31:32 33° 289° (WNW) 10:35:18 2200.000
DX 1 25 May 10:27:48 10:30:10 15° 90° (E) 10:32:45 434.975-435.025
Cosmos 2504 25 May 10:29:32 10:37:51 66° 94° (E) 10:45:38 435.465 / 435.565
CUTE 1.7 + AOD 2 25 May 10:31:36 10:35:24 33° 289° (WNW) 10:39:10 437.475
Oscar 11 25 May 10:31:38 10:35:55 61° 100° (E) 10:40:10 145.826/435.025
DELFI C3 25 May 10:32:13 10:36:04 44° 98° (E) 10:39:56 145.870
TIGRISAT 25 May 10:34:49 10:39:27 61° 75° (ENE) 10:44:05 435.000
CINEMA 3 25 May 10:36:14 10:41:00 67° 285° (WNW) 10:45:32 145.822/145.860
POPSAT HIP 1 25 May 10:36:16 10:39:55 29° 69° (ENE) 10:43:39 437.405
DUCHIFAT 1 25 May 10:39:46 10:43:28 30° 70° (ENE) 10:47:15 145.980
DOVE 4 25 May 10:44:16 10:48:49 31° 292° (WNW) 10:53:06 437.250
PCSat 25 May 10:46:51 10:52:18 74° 58° (ENE) 10:57:43 145.827
UNISAT 6 25 May 10:54:18 10:59:02 82° 257° (WSW) 11:03:43 437.425
RS-15 25 May 10:54:41 11:05:29 62° 311° (NW) 11:16:35 29.354- 29.394
UWE-3 25 May 10:55:46 11:00:13 82° 102° (ESE) 11:04:30 435.000/436.395/437.385
SEEDS 25 May 10:57:45 11:01:00 22° 292° (WNW) 11:04:08 437.485
BRITE-PL 25 May 11:01:11 11:03:46 13° 300° (WNW) 11:06:02 437.365/2234.400
AISAT 25 May 11:04:34 11:07:46 19° 92° (E) 11:11:05 437.250
FUNcube-1 25 May 11:11:04 11:15:26 87° 283° (WNW) 11:19:40 145.935
BUGSAT 1 25 May 11:11:17 11:15:13 45° 73° (ENE) 11:19:16 437.445
GOMX 1 25 May 11:13:27 11:16:10 14° 299° (WNW) 11:18:35 467.674
COMPASS 1 25 May 11:14:26 11:17:18 18° 293° (WNW) 11:20:01 437.405
SO-50 25 May 11:18:16 11:21:29 17° 38° (NE) 11:24:48 436.795
QB50P1 25 May 11:19:50 11:24:06 88° 77° (ENE) 11:28:26 145.935-145.965
POLYITAN 1 25 May 11:20:43 11:25:02 89° 256° (WSW) 11:29:23 437.675
AAUSAT CUBESAT 2 25 May 11:28:38 11:31:02 15° 294° (WNW) 11:33:16 437.432
ANTELSAT 25 May 11:38:24 11:42:31 29° 265° (W) 11:46:34 437.575/2403.000
HO-68 25 May 11:38:39 11:44:05 23° 302° (WNW) 11:49:17 435.675
CUBEBUG 2 25 May 11:41:20 11:45:10 27° 291° (WNW) 11:48:47 437.445
50 SAT 25 May 11:47:55 11:51:47 63° 101° (E) 11:55:36 437.505
ZACube-1 25 May 11:51:12 11:55:05 31° 290° (WNW) 11:58:49 437.345
NANOSAT C BR1 25 May 11:52:14 11:56:17 40° 262° (W) 12:00:20 145.865
CUSAT 1 25 May 11:53:58 11:57:23 14° 78° (ENE) 12:01:31 437.405
UKube-1 25 May 11:56:31 12:00:50 63° 286° (WNW) 12:05:08 .
QB50P2 25 May 11:59:03 12:02:56 33° 263° (W) 12:06:50 145.880/145.840
HUMSAT D 25 May 12:00:29 12:04:33 51° 286° (WNW) 12:08:33 437.325/437.525
DX 1 25 May 12:02:30 12:06:48 51° 287° (WNW) 12:11:02 434.975-435.025
ESTCUBE 1 25 May 12:04:34 12:08:58 49° 99° (E) 12:13:22 437.505/2401.250
DELFI C3 25 May 12:08:30 12:10:52 15° 294° (WNW) 12:13:06 145.870
VELOX 1 25 May 12:09:07 12:13:38 88° 284° (WNW) 12:18:07 145.980
Oscar 11 25 May 12:09:36 12:11:38 13° 296° (WNW) 12:13:28 145.826/435.025
POPSAT HIP 1 25 May 12:12:12 12:15:47 25° 266° (W) 12:19:19 437.405
CUBEBUG 1 25 May 12:12:50 12:17:12 52° 100° (E) 12:21:33 437.445
TIGRISAT 25 May 12:14:08 12:16:39 14° 271° (W) 12:18:55 435.000
DUCHIFAT 1 25 May 12:15:51 12:19:18 23° 266° (W) 12:22:43 145.980
Oscar 19 25 May 12:21:20 12:24:32 17° 63° (ENE) 12:27:56 437.125/150
Cosmos 2504 25 May 12:25:07 12:31:53 26° 293° (WNW) 12:38:05 435.465 / 435.565
GONETS M04 25 May 12:31:11 12:37:48 26° 83° (E) 12:44:46
PCSat 25 May 12:32:04 12:35:10 15° 255° (WSW) 12:37:59 145.827
UWE-3 25 May 12:35:32 12:36:06 10° 298° (WNW) 12:36:25 435.000/436.395/437.385
AISAT 25 May 12:40:19 12:44:33 40° 289° (WNW) 12:48:43 437.250
BUGSAT 1 25 May 12:48:36 12:51:01 15° 270° (W) 12:53:17 437.445
DANDE 25 May 12:49:27 12:55:16 30° 85° (E) 13:02:12 436.750
SO-50 25 May 12:57:45 13:02:45 86° 240° (WSW) 13:07:39 436.795
SPROUT 25 May 12:58:57 13:03:09 46° 99° (E) 13:07:19 437.525
Gurwin Techsat 1B 25 May 13:00:20 13:01:43 11° 59° (ENE) 13:03:25 435.225
RS-15 25 May 13:12:06 13:20:53 25° 341° (NNW) 13:29:45 29.354- 29.394
50 SAT 25 May 13:25:18 13:26:01 10° 296° (WNW) 13:26:32 437.505
TISAT 1 25 May 13:29:23 13:33:41 74° 102° (ESE) 13:37:56 437.305
ITUPSAT 1 25 May 13:31:10 13:32:47 12° 88° (E) 13:34:42 437.325
CUSAT 1 25 May 13:31:34 13:38:40 75° 97° (E) 13:46:58 437.405
BEESAT 25 May 13:39:12 13:41:50 15° 90° (E) 13:44:40 436.000
ESTCUBE 1 25 May 13:42:29 13:45:29 17° 295° (WNW) 13:48:21 437.505/2401.250
SWISSCUBE 25 May 13:46:48 13:50:12 20° 92° (E) 13:53:46 437.505
CUBEBUG 1 25 May 13:50:26 13:53:11 16° 295° (WNW) 13:55:45 437.445
Oscar 19 25 May 13:58:16 14:03:25 64° 259° (W) 14:08:37 437.125/150
ITAMSAT 1 25 May 14:08:33 14:13:29 49° 71° (ENE) 14:18:30 435.822/435.867
AO-7 25 May 14:23:27 14:29:27 24° 54° (NE) 14:35:43 29.400- 29.500
GONETS M04 25 May 14:25:10 14:33:58 69° 281° (W) 14:42:49
DANDE 25 May 14:31:04 14:37:58 58° 286° (WNW) 14:46:13 436.750
JAS-2 25 May 14:33:11 14:37:27 19° 64° (ENE) 14:41:39 435.910
Gurwin Techsat 1B 25 May 14:35:39 14:40:56 80° 77° (ENE) 14:46:17 435.225
SPROUT 25 May 14:36:04 14:38:54 17° 294° (WNW) 14:41:35 437.525
SO-50 25 May 14:41:54 14:42:37 10° 253° (WSW) 14:43:00 436.795
Cosmos 2499 25 May 15:04:22 15:11:57 45° 90° (E) 15:19:07 435.465 / 435.565
ITUPSAT 1 25 May 15:06:30 15:11:18 72° 285° (WNW) 15:16:04 437.325
TISAT 1 25 May 15:07:42 15:08:55 11° 297° (WNW) 15:09:54 437.305
BEESAT 25 May 15:15:26 15:20:08 57° 287° (WNW) 15:24:47 436.000
CUSAT 1 25 May 15:16:15 15:22:23 25° 299° (WNW) 15:28:49 437.405
STARS 25 May 15:19:57 15:22:56 18° 92° (E) 15:26:02 437.465
SWISSCUBE 25 May 15:23:46 15:28:18 43° 289° (WNW) 15:32:49 437.505
RS-15 25 May 15:29:56 15:38:31 24° 16° (NNE) 15:47:34 29.354- 29.394
HORYU 2 25 May 15:37:20 15:41:44 57° 73° (ENE) 15:46:09 437.375
KKS-1 25 May 15:46:50 15:51:17 57° 100° (E) 15:55:41 437.445
ITAMSAT 1 25 May 15:49:28 15:53:19 20° 268° (W) 15:57:02 435.822/435.867
O/OREOS (USA 219) 25 May 16:03:54 16:08:15 48° 107° (ESE) 16:12:36 437.305
AO-7 25 May 16:13:05 16:21:24 85° 253° (WSW) 16:29:47 29.400- 29.500
JAS-2 25 May 16:15:19 16:22:11 74° 257° (WSW) 16:28:14 435.910
Gurwin Techsat 1B 25 May 16:19:23 16:21:41 12° 273° (W) 16:23:39 435.225
DANDE 25 May 16:20:03 16:23:31 13° 310° (NW) 16:26:39 436.750
GONETS M04 25 May 16:28:25 16:32:57 14° 305° (NW) 16:36:54
STARS 25 May 16:55:25 16:59:37 41° 288° (WNW) 17:03:45 437.465
Cosmos 2499 25 May 16:57:47 17:05:14 37° 288° (WNW) 17:12:07 435.465 / 435.565
MOZHAYETS 4 25 May 17:04:02 17:08:03 31° 95° (E) 17:12:09
HORYU 2 25 May 17:16:26 17:18:48 14° 270° (W) 17:20:57 437.375
KKS-1 25 May 17:24:54 17:27:30 15° 296° (WNW) 17:29:54 437.445
